[[{"header":{"parameterUnit":"m.s-1","parameterCategory":1,"la1":30.2991,"la2":30.254,"lo1":-89.0895,"lo2":-89.0444,"dy":0.0017,"dx":0.0017,"nx":28,"ny":28,"refTime":"2025-05-24T03:00:00:Z","depth":0,"parameterNumber":2,"parameterNumberName":"U-component_of_WINDS"},"data":[0,0,0,0,0,0,0,0,0,0,0,0,0,0,0,0,0,0,0,0,0,0,0,0,0,0,0,0,0,0,0,0,0,0,0,0,0,0,0,0,0,0,0,0,0,0,0,0,0,0,0,0,0,0,0,0,0,0,-0.2341,-0.234,0,-0.2264,-0.2263,-0.2262,-0.2215,-0.2215,-0.2215,-0.2214,-0.2137,-0.2136,-0.2134,0,0,0,0,0,0,0,0,0,0,0,0,0,-0.2449,-0.2447,-0.2341,-0.234,-0.2339,-0.2264,-0.2263,-0.2262,-0.2215,-0.2215,-0.2215,-0.2214,-0.2138,-0.2136,-0.2134,0,0,0,0,0,0,0,0,0,0,0,0,0,-0.239,-0.2446,-0.2341,-0.2306,-0.2302,-0.2265,-0.2263,-0.2262,-0.2215,-0.2215,-0.2214,-0.2214,-0.2139,-0.2136,-0.2133,-0.2124,0,0,-0.2125,-0.2124,0,0,0,0,0,0,0,0,-0.2393,-0.2386,-0.2312,-0.2309,-0.2304,-0.2249,-0.2273,-0.2216,-0.2215,-0.2248,-0.2214,-0.2214,-0.2175,-0.2169,-0.2156,-0.2121,-0.2117,-0.2125,-0.2123,-0.2122,-0.2121,0,0,0,0,0,0,0,-0.2398,-0.2389,-0.231,-0.2311,-0.2306,-0.2296,-0.2287,-0.2262,-0.2215,-0.2246,-0.2242,-0.2233,-0.2173,-0.2158,-0.2153,-0.2116,-0.2125,-0.2122,-0.2121,-0.212,-0.2071,-0.2072,0,0,0,0,0,0,-0.2407,-0.2393,-0.2313,-0.2308,-0.2349,-0.2294,-0.2284,-0.2267,-0.2215,-0.2207,-0.2234,-0.2231,-0.2163,-0.2157,-0.2151,-0.2137,-0.2122,-0.2119,-0.2118,-0.2071,-0.2072,-0.2072,0,0,0,0,0,0,-0.2409,-0.24,-0.2316,-0.2349,-0.2338,-0.2292,-0.2274,-0.2266,-0.2251,-0.2206,-0.2198,-0.2228,-0.2163,-0.2154,-0.2131,-0.2134,-0.2118,-0.2116,-0.2071,-0.2071,-0.2072,-0.2111,0,0,0,0,0,0,-0.2413,-0.2401,-0.2397,-0.235,-0.2336,-0.2298,-0.2274,-0.2264,-0.2247,-0.2243,-0.2198,-0.219,-0.2162,-0.2136,-0.2129,-0.213,-0.2114,-0.207,-0.2071,-0.2072,-0.2109,-0.2113,-0.2116,0,0,0,0,0,-0.2417,-0.2411,-0.2397,-0.2387,-0.233,-0.2298,-0.229,-0.2257,-0.2247,-0.2243,-0.2214,-0.2192,-0.2135,-0.2134,-0.2125,-0.2126,-0.207,-0.2071,-0.2072,-0.2108,-0.2112,-0.2116,0,0,0,0,0,0,-0.246,-0.2404,-0.2388,-0.2366,-0.2337,-0.229,-0.2283,-0.2262,-0.2236,-0.2233,-0.2193,-0.2184,-0.2165,-0.2143,-0.2143,-0.2115,-0.21,-0.2099,-0.213,-0.2134,-0.2137,-0.2143,-0.2111,0,0,0,0,0,-0.2466,-0.2445,-0.2397,-0.2383,-0.2369,-0.2329,-0.2314,-0.2291,-0.2259,-0.2247,-0.2216,-0.2186,-0.2162,-0.2147,-0.2122,-0.2106,-0.2096,-0.2102,-0.2105,-0.2108,-0.2108,-0.21,-0.2102,-0.2075,-0.2075,-0.2075,0,0,-0.2481,-0.2448,-0.2436,-0.2391,-0.2366,-0.2345,-0.2319,-0.2297,-0.2282,-0.2243,-0.222,-0.2197,-0.2161,-0.2142,-0.2132,-0.2123,-0.2114,-0.2109,-0.2112,-0.211,-0.2101,-0.2103,-0.2106,-0.2075,-0.2075,-0.2075,0,0,-0.2496,-0.2468,-0.2454,-0.2429,-0.2391,-0.2364,-0.2361,-0.2317,-0.23,-0.2276,-0.2247,-0.2228,-0.2187,-0.2163,-0.2146,-0.2153,-0.2133,-0.2146,-0.2164,-0.2156,-0.2158,-0.216,-0.2163,-0.2165,-0.2146,-0.2146,-0.2147,0,-0.2519,-0.2485,-0.2449,-0.243,-0.2411,-0.2376,-0.2361,-0.2339,-0.2295,-0.2284,-0.2275,-0.2223,-0.2196,-0.2172,-0.2174,-0.216,-0.2156,-0.2151,-0.216,-0.2162,-0.2163,-0.2166,-0.2168,-0.2148,-0.2148,-0.2148,-0.2148,0,-0.2516,-0.2493,-0.2486,-0.2444,-0.2425,-0.2409,-0.2371,-0.2356,-0.2335,-0.231,-0.2287,-0.2254,-0.2222,-0.2214,-0.2194,-0.2187,-0.2183,-0.2168,-0.2152,-0.2168,-0.2171,-0.2171,-0.2151,-0.2151,-0.215,-0.215,0,0,-0.2555,-0.2494,-0.2493,-0.2474,-0.243,-0.2412,-0.2395,-0.2363,-0.2352,-0.2323,-0.2308,-0.2274,-0.226,-0.224,-0.2217,-0.2209,-0.2219,-0.2195,-0.2193,-0.2201,-0.2212,-0.2225,-0.2227,-0.2205,-0.2205,-0.2205,-0.2215,0,-0.2565,-0.2531,-0.2498,-0.2476,-0.2456,-0.2422,-0.2407,-0.2379,-0.2355,-0.2335,-0.2309,-0.2286,-0.2268,-0.2256,-0.2248,-0.222,-0.2221,-0.2219,-0.2192,-0.2191,-0.2202,-0.2227,-0.224,-0.2251,-0.2216,-0.2216,-0.2216,0,-0.2571,-0.2544,-0.252,-0.2478,-0.2469,-0.2456,-0.2425,-0.2406,-0.2374,-0.2357,-0.2336,-0.2311,-0.2292,-0.2278,-0.2252,-0.2251,-0.2239,-0.2224,-0.2223,-0.222,-0.2205,-0.2226,-0.2254,-0.2256,-0.2217,-0.2217,-0.2217,0,-0.2604,-0.2561,-0.2541,-0.2526,-0.2477,-0.2469,-0.2449,-0.2416,-0.24,-0.2373,-0.2363,-0.2335,-0.2319,-0.2299,-0.2268,-0.226,-0.2245,-0.2228,-0.2232,-0.2233,-0.223,-0.2231,-0.2258,-0.2221,-0.2221,-0.2221,-0.2221,0,-0.2618,-0.2605,-0.2556,-0.2544,-0.2528,-0.2492,-0.2478,-0.2455,-0.2426,-0.241,-0.2379,-0.2365,-0.2324,-0.2305,-0.228,-0.2263,-0.2256,-0.2243,-0.2237,-0.2246,-0.2248,-0.2238,-0.2236,-0.2222,-0.2222,-0.2221,-0.2221,0,-0.2653,-0.2619,-0.2595,-0.2551,-0.254,-0.253,-0.2493,-0.2481,-0.2456,-0.2435,-0.2429,-0.2389,-0.2366,-0.2332,-0.2298,-0.2282,-0.2269,-0.2258,-0.2279,-0.2276,-0.2281,-0.2282,-0.2303,-0.2304,-0.2267,-0.2267,-0.2267,0,-0.2664,-0.2653,-0.2608,-0.2595,-0.2575,-0.2554,-0.2537,-0.2501,-0.2485,-0.2449,-0.2441,-0.2415,-0.2392,-0.2356,-0.2325,-0.2299,-0.2288,-0.2297,-0.2284,-0.2294,-0.229,-0.2291,-0.229,-0.2301,-0.2301,-0.2302,-0.2302,0,-0.2689,-0.2673,-0.265,-0.2621,-0.2602,-0.2577,-0.2552,-0.2543,-0.2502,-0.2486,-0.2461,-0.2443,-0.2409,-0.2383,-0.2354,-0.2333,-0.2312,-0.2307,-0.2306,-0.2316,-0.2329,-0.2323,-0.2289,-0.2306,-0.2306,-0.2306,-0.2305,-0.2305,-0.2713,-0.2702,-0.2669,-0.2644,-0.2621,-0.2598,-0.2585,-0.2558,-0.2536,-0.2505,-0.2486,-0.2462,-0.2432,-0.2389,-0.237,-0.2352,-0.2343,-0.2342,-0.2342,-0.2343,-0.2347,-0.2332,-0.2346,-0.2346,-0.2346,-0.2346,-0.2346,0,-0.2737,-0.2714,-0.2692,-0.2657,-0.2638,-0.2619,-0.259,-0.2575,-0.2555,-0.2528,-0.2506,-0.2478,-0.2454,-0.2421,-0.2395,-0.2387,-0.2376,-0.2381,-0.2382,-0.2378,-0.2355,-0.2359,-0.239,-0.239,-0.239,-0.239,-0.239,-0.239,-0.2748,-0.2729,-0.2709,-0.2679,-0.2656,-0.2632,-0.2618,-0.2597,-0.2575,-0.2545,-0.2525,-0.2504,-0.2475,-0.2446,-0.2423,-0.2415,-0.2407,-0.2415,-0.2403,-0.2383,-0.2379,-0.2375,-0.2378,-0.2413,-0.2413,-0.2427,-0.2427,-0.2427]},{"header":{"parameterUnit":"m.s-1","parameterCategory":1,"la1":30.2991,"la2":30.254,"lo1":-89.0895,"lo2":-89.0444,"dy":0.0017,"dx":0.0017,"nx":28,"ny":28,"refTime":"2025-05-24T03:00:00:Z","depth":0,"parameterNumber":3,"parameterNumberName":"V-component_of_WINDS"},"data":[0,0,0,0,0,0,0,0,0,0,0,0,0,0,0,0,0,0,0,0,0,0,0,0,0,0,0,0,0,0,0,0,0,0,0,0,0,0,0,0,0,0,0,0,0,0,0,0,0,0,0,0,0,0,0,0,0,0,4.967,4.967,0,4.9668,4.9668,4.9668,4.9606,4.9605,4.9603,4.9602,4.9598,4.9599,4.9601,0,0,0,0,0,0,0,0,0,0,0,0,0,4.9621,4.9622,4.967,4.967,4.967,4.9668,4.9668,4.9668,4.9606,4.9605,4.9603,4.9601,4.9598,4.9599,4.9601,0,0,0,0,0,0,0,0,0,0,0,0,0,4.9633,4.9622,4.967,4.9639,4.9636,4.9668,4.9668,4.9667,4.9607,4.9604,4.9602,4.96,4.9597,4.9599,4.9601,4.9661,0,0,4.9608,4.9608,0,0,0,0,0,0,0,0,4.9632,4.9634,4.9643,4.9641,4.9638,4.9635,4.9649,4.9665,4.9607,4.9618,4.9601,4.9599,4.9612,4.9613,4.9618,4.9661,4.9661,4.9608,4.9609,4.961,4.961,0,0,0,0,0,0,0,4.9631,4.9634,4.9669,4.9644,4.964,4.9625,4.9624,4.9652,4.9628,4.9617,4.9612,4.9613,4.961,4.9616,4.9617,4.9661,4.9608,4.9609,4.9611,4.9612,4.9756,4.9758,0,0,0,0,0,0,4.9635,4.9634,4.9669,4.9669,4.9629,4.9628,4.9627,4.9638,4.9628,4.9624,4.9615,4.961,4.9613,4.9615,4.9617,4.9688,4.961,4.9612,4.9613,4.9753,4.9757,4.9759,0,0,0,0,0,0,4.9634,4.9638,4.9669,4.965,4.9653,4.9631,4.9644,4.9639,4.9645,4.9627,4.9622,4.9625,4.9612,4.9614,4.9651,4.9687,4.9613,4.9615,4.975,4.9754,4.9758,4.983,0,0,0,0,0,0,4.9633,4.9638,4.9661,4.9651,4.9654,4.9704,4.9647,4.9641,4.9649,4.9642,4.9635,4.9631,4.961,4.9649,4.9653,4.9688,4.9616,4.9747,4.9752,4.9757,4.9824,4.9836,4.9845,0,0,0,0,0,4.9631,4.968,4.9662,4.9667,4.9682,4.9706,4.9707,4.9682,4.9652,4.9674,4.9663,4.9631,4.9682,4.9653,4.9658,4.9694,4.9745,4.9751,4.9756,4.9819,4.9833,4.9845,0,0,0,0,0,0,4.9694,4.9678,4.9658,4.9706,4.9708,4.9695,4.9723,4.9698,4.9708,4.9701,4.9669,4.9668,4.9711,4.9706,4.9674,4.9753,4.9708,4.9715,4.9754,4.9767,4.9778,4.9778,4.9618,0,0,0,0,0,4.9713,4.9734,4.972,4.9763,4.9765,4.9744,4.9754,4.9735,4.9735,4.9735,4.9726,4.9728,4.9744,4.9755,4.9769,4.9823,4.9821,4.9851,4.9861,4.987,4.9877,4.9906,4.992,4.9779,4.9778,4.9778,0,0,4.9753,4.9748,4.9763,4.9776,4.9775,4.9798,4.9745,4.9771,4.9788,4.9739,4.9774,4.9768,4.9767,4.9814,4.9834,4.9811,4.9915,4.9878,4.9885,4.9886,4.9914,4.9927,4.9939,4.9783,4.9782,4.9781,0,0,4.9838,4.9836,4.9872,4.9873,4.9873,4.986,4.9869,4.9861,4.9855,4.989,4.9855,4.9874,4.9903,4.9904,4.9909,4.9997,4.9969,5.0003,5.0058,5.0088,5.0099,5.0109,5.0141,5.0153,5.0009,5.001,5.001,0,4.9888,4.9921,4.9894,4.9923,4.9931,4.9889,4.9926,4.9928,4.9933,4.9939,4.9913,4.995,4.9946,4.9993,5.0015,5.002,5.003,5.0003,5.01,5.0109,5.0118,5.0148,5.0161,5.0014,5.0013,5.0013,5.0012,0,4.9983,5.0006,5.0036,5.0043,5.0053,5.0086,5.0065,5.0079,5.006,5.0049,5.0086,5.0081,5.0094,5.0104,5.0084,5.0149,5.0135,5.0105,5.006,5.0136,5.0164,5.0176,5.002,5.0018,5.0017,5.0016,0,0,5.0105,5.0099,5.011,5.0114,5.0112,5.013,5.0161,5.0175,5.0188,5.0193,5.0219,5.0246,5.0219,5.0224,5.0205,5.0231,5.0303,5.0198,5.0197,5.0218,5.0375,5.0398,5.0412,5.0284,5.0286,5.0288,5.0375,0,5.0188,5.0242,5.022,5.0277,5.0299,5.0261,5.0289,5.0291,5.0282,5.03,5.029,5.0309,5.0272,5.0275,5.0299,5.0289,5.0334,5.0282,5.0308,5.031,5.031,5.0426,5.045,5.0532,5.0386,5.0388,5.0389,0,5.0291,5.0302,5.0361,5.0358,5.0366,5.0392,5.0404,5.0421,5.0423,5.0415,5.0422,5.0398,5.0429,5.0385,5.0428,5.0393,5.0403,5.04,5.0402,5.0404,5.0354,5.0431,5.0558,5.0571,5.0406,5.0405,5.0404,0,5.0376,5.0405,5.0445,5.0449,5.0446,5.0465,5.0464,5.0464,5.0474,5.0485,5.0491,5.0505,5.0512,5.0524,5.0504,5.0473,5.055,5.0503,5.0545,5.0545,5.0562,5.0562,5.0693,5.0568,5.0568,5.0568,5.0567,0,5.0471,5.0509,5.0484,5.0508,5.055,5.0525,5.0567,5.0562,5.0562,5.0585,5.0553,5.0575,5.0547,5.0567,5.0551,5.059,5.0594,5.0588,5.0584,5.0591,5.0592,5.0597,5.0591,5.0571,5.057,5.057,5.0569,0,5.0572,5.0557,5.0598,5.0592,5.0592,5.0623,5.0618,5.064,5.063,5.066,5.0665,5.0649,5.067,5.0652,5.0672,5.0662,5.0714,5.0701,5.0714,5.071,5.0753,5.0749,5.0892,5.091,5.0773,5.0775,5.0776,0,5.0634,5.0662,5.0661,5.0674,5.0676,5.0698,5.0709,5.0686,5.0699,5.0705,5.0727,5.0747,5.0761,5.0797,5.0787,5.0803,5.079,5.0839,5.0792,5.08,5.0792,5.0791,5.0794,5.0849,5.0851,5.0852,5.0853,0,5.0745,5.0737,5.0754,5.0771,5.0785,5.0796,5.0804,5.0817,5.0794,5.081,5.0833,5.0844,5.0866,5.0886,5.0899,5.0898,5.0872,5.0868,5.0878,5.0887,5.0893,5.0891,5.074,5.0865,5.0863,5.0863,5.0862,5.0861,5.0829,5.0853,5.0857,5.0878,5.0883,5.0892,5.0913,5.0907,5.0925,5.0942,5.0928,5.0955,5.0958,5.0973,5.0976,5.0997,5.0976,5.0991,5.0995,5.0999,5.1006,5.089,5.0999,5.0999,5.0998,5.0998,5.0998,0,5.0939,5.094,5.096,5.0974,5.0992,5.0967,5.0976,5.0991,5.1017,5.1022,5.1037,5.1064,5.1084,5.1076,5.1093,5.1112,5.1101,5.1117,5.1116,5.1116,5.1023,5.1012,5.1126,5.1126,5.1126,5.1126,5.1126,5.1126,5.0999,5.104,5.1032,5.1075,5.1076,5.1103,5.1111,5.1119,5.1124,5.1156,5.1172,5.1168,5.1168,5.1186,5.1203,5.12,5.1208,5.1229,5.1222,5.1135,5.1123,5.111,5.1101,5.1231,5.1231,5.1314,5.1315,5.1315]}]]